User: anonymous   Login
Location: Daytona Beach
(29.2106°N, 81.0231°W)
Time: 08:05:22
(UTC-04:00)
Language:

PSAT 2 - Orbit

View from above orbital plane
View from above orbital plane
View from above satellite
View from above satellite

Ground track
Ground track

The orbit data is extracted from the following two-line orbital elements,

1 44354U 19036R   21266.11854678  .00017066  00000-0  21643-3 0  9995
2 44354  28.5292 194.3190 0313504 257.5263  99.0087 15.16616341123804
Epoch (UTC): 23 September 2021 02:50:42
Eccentricity: 0.0313504
inclination: 28.5292°
perigee height: 300 km
apogee height: 732 km
right ascension of ascending node: 194.3190°
argument of perigee: 257.5263°
revolutions per day: 15.16616341
mean anomaly at epoch: 99.0087°
orbit number at epoch: 12380

The dashed part of the orbit path shows where the satellite is in the earth's shadow,  

DLR